Wind_Speed
10 9 13 14 13 11 9 8 7 8 9 10 10 11 12 14 16 5 6 9 14 16 11 9 4 5 7 7 6 3 8 13 18 13 12 2 2 1 4 5 3 5 2 1 25
12 12 13 14 13 11 10 8 8 7 9 11 12 12 13 14 7 5 5 12 14 4 3 4 4 3 7 13 6 9 13 15 7 11 12 8 8 10 5 7 6 4 3 15 28
12 13 13 14 15 14 12 10 7 7 8 10 11 12 14 14 1 2 6 11 9 5 2 4 5 3 9 8 15 11 17 13 7 10 13 13 10 4 6 8 9 10 10 19 28
13 15 15 16 16 15 11 11 9 7 7 10 12 12 13 6 2 4 9 10 8 6 3 2 1 4 6 12 13 12 15 12 14 15 11 8 6 11 9 10 5 7 12 19 21
15 15 16 14 16 14 11 9 8 8 8 8 10 11 7 4 1 6 8 9 5 3 7 3 1 1 6 3 7 13 10 8 5 4 10 10 14 15 15 13 9 3 10 17 17
13 16 15 15 14 13 9 6 6 6 6 7 7 7 4 4 1 2 8 12 11 7 5 4 2 2 0 2 4 4 7 11 9 8 8 10 17 14 14 13 9 2 8 13 18
13 14 14 14 14 12 10 6 5 5 6 5 6 3 4 6 3 8 12 9 8 4 2 3 3 2 1 2 3 3 8 11 14 15 14 8 21 23 17 18 19 15 6 10 13
11 11 12 13 13 13 11 8 6 5 5 4 4 1 4 4 8 7 5 2 2 2 3 4 2 1 2 3 2 2 6 9 10 17 9 14 28 11 13 19 22 23 16 12 14
10 10 12 13 15 14 12 11 7 5 4 3 2 2 3 6 3 5 3 3 5 4 2 3 1 0 2 3 3 4 6 9 10 10 9 18 16 8 14 18 16 17 18 16 15
8 9 11 13 16 12 12 6 4 4 4 1 2 4 1 3 3 3 3 3 3 3 3 1 1 3 3 5 4 4 5 5 10 0 12 21 21 19 15 11 14 20 20 17 17
8 8 10 13 15 11 12 1 3 2 4 3 4 4 2 4 5 2 2 1 1 1 1 3 4 8 7 10 9 3 6 9 6 7 10 16 18 18 12 13 18 19 17 16 17
7 8 10 12 9 10 8 5 5 3 6 3 6 7 8 5 4 3 3 3 2 3 4 2 8 11 9 8 10 13 14 16 16 16 13 17 23 19 22 17 18 17 20 21 18
5 7 9 13 6 8 9 6 3 5 3 3 3 3 2 2 2 4 6 1 3 4 7 7 5 2 5 7 11 13 14 13 14 11 15 16 26 25 26 23 21 22 22 21 21
3 6 8 11 2 5 3 2 4 2 2 5 3 1 1 3 3 4 7 2 3 4 5 8 7 9 12 14 11 13 7 13 13 8 6 0 10 14 13 20 21 22 23 23 22
2 3 6 7 2 2 1 6 2 1 2 3 2 2 3 3 8 1 3 3 6 5 2 3 5 7 12 12 9 7 8 9 12 13 13 19 9 7 14 19 23 18 20 23 25
2 2 4 3 4 1 2 4 1 1 1 4 4 4 8 1 2 1 2 2 2 3 9 16 8 7 16 10 12 2 7 12 9 9 8 19 15 14 16 19 21 18 21 21 22
3 1 3 3 1 1 5 1 2 1 2 5 4 7 8 3 3 1 2 3 3 4 3 5 12 10 10 8 10 12 4 4 6 7 8 7 12 20 18 19 24 22 19 23 19
4 2 3 2 1 1 1 2 1 1 4 3 4 9 4 6 2 4 3 3 2 4 4 5 8 7 9 9 5 15 14 6 7 5 8 6 9 13 19 21 21 24 20 21 16
5 2 3 1 3 1 1 3 2 5 1 4 4 3 4 3 5 5 4 4 1 1 3 5 5 1 6 7 4 3 10 7 2 4 6 9 16 12 10 4 9 8 7 10 10
5 4 2 2 1 2 1 1 2 3 2 4 2 1 4 7 6 9 3 3 3 4 4 3 8 2 1 2 5 2 3 3 4 4 8 7 7 5 12 13 11 11 10 9 6
6 3 4 5 4 1 2 3 3 5 5 2 1 3 4 5 7 5 4 2 1 9 7 4 5 1 3 6 9 4 4 7 3 6 4 5 4 2 6 9 9 9 11 11 10
5 1 1 7 1 1 2 6 3 3 3 4 2 3 3 5 4 4 3 3 5 8 8 2 4 6 5 1 5 11 7 12 4 3 4 6 7 6 8 8 8 12 8 10 12
3 2 2 3 3 3 1 2 3 5 4 5 4 6 5 2 4 5 5 3 4 8 2 5 3 6 2 2 2 4 10 11 5 2 11 3 2 5 10 10 8 7 9 12 15
3 2 1 2 1 4 4 2 3 4 3 3 2 2 3 2 4 5 6 5 9 6 9 5 3 4 6 4 5 4 6 15 11 4 4 6 3 5 8 8 10 12 15 16 16
2 2 1 4 6 5 4 6 4 4 4 4 2 7 4 2 3 4 3 9 5 4 10 5 3 2 2 6 5 12 14 13 17 17 5 6 7 8 8 7 12 13 14 16 17
4 4 1 2 4 8 5 6 8 4 7 5 5 5 6 5 7 4 5 4 4 7 9 8 3 4 3 3 8 11 16 15 9 6 6 3 9 5 5 6 11 13 14 16 16
5 4 1 5 4 5 5 6 8 7 6 2 6 3 8 13 9 10 9 11 12 11 6 5 5 3 2 6 3 4 11 9 6 11 4 7 4 6 9 13 12 11 13 14 14
Wind_Direction
11 356 342 338 340 341 340 338 339 349 343 342 342 340 339 332 336 0 46 341 322 279 302 310 270 235 215 208 176 162 228 235 232 233 231 199 273 271 328 208 202 194 299 52 155
356 350 340 336 337 334 333 334 332 337 342 335 339 344 341 339 343 69 38 360 357 67 329 319 209 213 210 211 191 202 224 242 233 255 257 255 297 292 286 228 206 200 58 140 154
343 343 347 334 323 319 318 320 328 332 334 331 336 343 338 337 263 101 346 352 358 7 2 325 296 245 221 217 207 207 232 226 233 250 259 262 273 283 282 258 252 232 163 162 165
347 349 338 332 331 323 313 304 306 319 324 329 335 346 338 329 297 3 328 329 358 24 3 348 279 203 221 212 222 240 228 250 244 245 265 256 294 263 266 268 14 355 176 173 182
356 337 342 346 340 328 320 298 294 303 317 328 336 347 355 325 359 33 48 19 23 40 36 22 101 207 206 247 250 239 244 247 232 284 273 273 265 267 267 273 304 334 174 193 203
339 341 353 349 350 351 345 332 312 306 313 332 339 348 357 316 72 125 0 352 31 36 37 26 34 356 245 286 268 349 292 271 274 271 268 274 265 260 259 256 277 279 241 211 206
341 347 356 352 356 357 359 355 328 314 324 329 336 1 287 285 322 309 310 320 305 320 355 13 339 300 250 242 338 265 278 264 248 240 248 262 258 241 247 256 263 263 259 233 223
342 351 356 353 355 357 353 350 327 316 329 333 320 17 273 281 310 332 327 2 351 266 267 346 323 30 297 323 286 250 235 246 233 222 233 223 256 243 241 247 249 253 251 238 220
346 356 356 355 348 346 344 336 301 306 306 311 320 301 314 327 15 9 67 86 77 62 109 357 351 2 189 221 249 224 259 241 274 233 248 223 265 243 254 253 261 259 251 250 241
344 352 352 353 344 343 348 360 56 58 23 80 254 265 294 27 350 8 70 98 69 106 118 18 16 242 224 206 262 248 236 243 252 101 243 249 255 260 263 255 261 258 256 244 244
335 345 348 354 356 360 360 337 9 92 31 329 313 287 300 331 301 252 280 159 155 163 252 85 254 243 265 243 268 308 295 283 285 307 299 262 265 259 239 261 248 253 259 256 252
325 342 342 355 1 9 34 66 74 336 320 306 295 267 280 281 287 281 196 239 222 268 150 171 250 280 242 249 251 260 263 264 272 258 269 281 272 260 258 254 258 255 257 259 256
328 337 342 351 2 30 61 79 80 345 286 308 309 314 349 170 271 288 185 199 256 253 223 228 258 348 194 231 237 246 257 258 259 295 273 281 279 265 254 255 248 253 257 253 248
327 334 343 350 62 15 57 29 351 344 308 346 349 64 255 253 263 248 211 246 215 285 267 259 268 261 241 256 253 275 240 254 267 266 261 127 281 278 250 245 243 243 247 250 243
283 342 345 10 31 51 10 339 356 161 290 1 303 309 282 267 313 168 195 164 246 232 220 298 239 225 230 234 207 257 262 259 266 257 266 254 261 268 239 247 249 240 238 245 243
254 344 340 358 1 39 348 339 126 289 324 338 307 347 334 208 267 304 193 227 287 262 229 258 259 257 244 254 233 218 230 255 263 248 236 242 220 272 246 243 263 250 236 239 244
224 221 300 328 118 104 337 6 15 65 9 340 335 334 315 277 294 223 276 236 264 293 240 257 253 238 237 253 236 215 180 218 221 210 251 259 226 239 275 244 246 262 250 238 242
213 224 272 126 154 3 34 84 83 100 266 326 311 320 311 333 288 314 288 284 246 240 290 317 310 176 162 216 234 204 202 212 245 244 286 238 239 241 247 263 264 268 271 255 265
177 156 141 126 163 68 238 78 205 193 188 329 344 341 317 316 324 340 288 291 217 150 311 298 255 346 220 222 200 145 210 213 289 219 261 253 262 277 350 206 314 325 308 274 265
141 124 58 77 152 71 65 119 175 203 223 249 57 318 312 328 324 344 300 75 19 351 125 289 289 195 113 105 167 234 119 170 165 275 272 257 323 304 341 323 330 337 358 331 331
138 144 162 153 118 10 162 185 234 223 218 220 153 281 286 329 323 302 296 336 274 336 331 253 230 246 173 208 185 170 198 221 245 227 277 293 267 240 323 321 350 355 16 353 9
133 65 331 145 114 306 172 167 203 223 192 244 250 265 265 322 275 295 273 277 334 339 320 286 297 285 291 291 295 225 224 205 214 237 250 300 284 354 16 23 19 28 14 23 39
116 109 24 116 224 213 287 169 247 204 216 204 225 208 201 249 304 251 297 324 356 332 314 1 266 301 253 174 175 219 228 230 227 253 232 248 297 1 26 13 33 45 49 44 42
120 136 65 65 245 157 166 196 232 211 247 219 262 255 259 273 233 283 291 301 331 276 312 295 250 288 310 343 324 312 329 239 209 249 300 253 112 13 11 13 9 30 38 40 38
96 239 143 176 227 176 179 167 185 204 221 216 229 229 217 276 297 247 269 312 306 354 334 347 280 270 231 80 57 36 18 7 213 220 293 41 79 16 351 7 23 31 36 38 30
146 148 196 133 158 140 181 209 202 188 179 214 216 204 214 234 218 279 305 328 290 325 339 338 298 305 239 171 62 41 15 22 31 8 74 52 70 348 353 24 25 25 31 30 23
152 116 196 165 162 157 204 188 200 182 206 228 199 208 244 253 260 264 262 268 268 294 304 308 312 314 278 351 233 4 356 359 17 22 347 49 36 349 19 29 23 8 30 26 12
Height
855 855 855 854 850 847 844 842 842 840 839 837 834 833 832 829 825 823 824 826 822 818 818 816 815 814 814 809 811 810 810 806 804 806 799 793 794 788 789 787 790 790 788 793 798
855 853 851 851 849 846 844 842 842 840 840 838 835 832 831 828 825 824 825 823 820 817 819 818 815 814 810 806 807 808 808 801 797 798 799 794 796 791 793 788 790 792 795 794 799
854 851 850 848 847 845 843 842 839 839 837 836 835 833 831 829 826 824 824 823 822 820 820 820 818 815 811 805 803 802 804 796 802 800 797 797 796 792 793 793 785 786 794 797 797
853 851 848 847 846 844 841 842 840 837 835 835 835 833 830 829 822 826 824 823 822 821 821 820 818 815 810 807 801 806 798 800 799 799 800 799 796 793 792 789 791 789 792 797 798
852 850 847 845 844 841 838 837 837 836 835 834 834 833 830 830 829 827 825 824 823 823 822 821 819 816 813 813 810 806 799 799 802 804 802 800 799 797 791 787 790 793 794 796 799
851 850 847 846 843 840 837 836 837 835 834 834 834 834 834 828 829 828 826 826 826 825 824 823 822 822 819 816 813 816 810 806 804 803 802 803 796 794 787 785 788 793 793 794 795
851 850 847 846 843 841 839 835 835 835 835 836 835 834 834 832 830 828 827 826 827 827 826 826 826 823 821 817 819 816 813 805 799 800 798 798 792 787 785 786 785 785 790 793 794
850 848 846 846 843 841 839 836 834 834 835 836 835 835 830 830 829 827 826 826 826 826 828 827 826 825 823 822 817 814 811 805 787 792 795 796 772 773 776 778 778 777 780 786 789
849 847 847 846 846 841 838 835 834 833 833 835 837 836 830 830 829 828 828 828 827 827 828 829 828 826 825 821 818 816 803 803 797 788 791 789 778 774 775 777 776 772 771 775 780
846 845 845 843 843 842 839 836 833 834 835 835 837 838 831 831 830 830 829 829 828 828 829 830 829 824 824 819 805 802 811 808 799 791 789 785 782 776 776 775 773 768 767 769 770
846 844 844 843 842 841 838 838 838 836 838 838 838 836 832 832 830 829 829 829 828 828 824 831 830 821 814 817 813 815 815 809 807 800 801 786 782 775 774 774 769 766 766 764 765
844 844 844 841 839 840 839 840 847 853 844 839 839 838 834 833 832 829 829 829 827 823 826 832 826 815 819 823 822 817 815 811 806 806 804 792 781 779 773 772 770 765 762 761 761
843 843 842 843 842 842 842 845 847 847 846 839 839 836 834 834 830 827 829 827 828 825 823 824 809 812 818 818 817 811 812 810 808 804 803 799 777 771 765 765 765 762 757 755 755
841 842 842 841 843 841 846 847 846 846 844 838 835 834 833 832 829 826 827 829 829 822 818 817 810 814 813 814 812 808 800 807 810 814 801 790 774 753 748 753 752 752 751 749 748
840 840 841 839 840 843 845 846 844 847 816 837 834 833 831 832 828 825 826 828 823 822 825 805 811 812 812 800 804 803 802 805 804 805 807 795 803 752 749 750 741 737 738 738 739
839 839 841 842 842 842 842 844 845 839 818 845 838 834 831 827 825 824 826 828 825 823 819 813 804 807 795 796 801 803 812 812 808 809 806 781 790 753 745 745 740 730 728 727 729
838 837 840 839 839 840 841 842 836 820 852 844 845 837 836 828 823 822 821 822 819 814 813 805 796 797 800 807 805 811 812 802 801 799 783 763 773 757 734 730 727 723 722 717 718
838 838 840 839 841 840 840 837 827 871 861 852 842 839 836 822 819 818 817 817 816 822 813 804 784 793 796 797 791 799 799 791 785 778 762 755 757 737 728 725 726 723 721 714 716
836 839 841 840 841 838 840 834 834 857 853 852 839 841 837 826 823 817 815 812 821 822 816 808 789 790 791 791 799 794 796 788 795 791 776 747 732 725 732 731 735 731 730 720 718
835 840 847 843 847 843 844 839 850 852 850 843 842 843 839 829 825 816 817 818 820 821 823 818 801 798 799 800 799 796 789 792 793 790 768 742 748 744 751 742 734 738 733 728 722
835 838 838 841 843 847 837 848 857 848 848 848 843 842 832 835 832 823 818 812 820 811 819 819 814 791 799 793 785 792 787 781 772 774 764 754 735 765 757 753 743 744 735 733 726
835 844 846 843 847 869 850 854 851 844 847 844 843 844 841 837 834 828 820 813 811 815 819 817 809 789 779 789 787 773 771 769 772 772 770 770 753 768 764 761 754 748 745 740 733
840 839 846 842 845 850 859 846 849 842 841 839 836 842 836 842 836 833 821 815 817 817 817 816 804 783 767 784 786 783 773 765 767 774 767 769 750 773 765 762 758 755 747 743 738
838 839 843 845 849 844 853 852 846 842 840 838 835 834 833 837 834 832 826 818 818 816 817 818 806 794 783 789 791 780 779 769 772 771 758 753 761 767 770 773 769 755 746 743 744
824 837 838 840 844 837 840 841 839 840 841 838 835 834 833 841 849 836 827 822 818 818 814 812 798 799 797 797 793 790 786 779 764 762 766 762 768 778 778 774 771 760 755 753 752
824 834 844 847 840 833 838 840 834 833 834 834 834 830 833 832 828 831 829 826 824 819 815 811 800 798 790 794 789 788 787 783 781 781 776 776 778 789 786 783 774 771 768 764 764
815 821 824 841 837 831 831 828 829 829 829 828 828 832 832 826 826 825 825 825 827 831 825 817 810 800 781 791 789 781 796 793 793 792 785 775 787 789 787 783 784 781 776 775 775